sat.trackr.live / text

‹ back to catalog

SKYCRAFT-4A

NORAD 64897 · 2025-154J

PAYLOAD ACTIVE UNKNOWN

§ Identity

Operator
Country
AUS
Launch date
2025-07-23
Launch site
AFWTR
Launch vehicle
Mass (kg)
RCS (m²)

External: N2YO · Heavens-Above · Gunter

§ Orbital elements

Epoch: 2026-05-25T02:23:08.453760Z

Period
96.23 min
Inclination
97.6709°
Eccentricity
0.0004469
Mean motion
14.96339026 rev/d
Perigee alt
575.1 km
Apogee alt
581.3 km
Semi-major
6,956.4 km
B*
5.3511e-4
RAAN
209.9777°
Arg perigee
353.7434°
Mean anomaly
6.3731°
Rev number
4,393

§ Raw data

SKYCRAFT-4A1 64897U 25154J   26145.09940340  .00006000  00000+0  53511-3 0  99912 64897  97.6709 209.9777 0004469 353.7434   6.3731 14.96339026 43939

JSON: /api/v1/satellites/64897 · /tle

For live sub-satellite position, see the globe view (requires WebGL).

§ Visibility from observer

Set your observer location to see the next 7 days of passes ≥ 10°. The values pass through the URL so the page stays shareable.

No JS? Fill the form by hand. The geolocation button needs JavaScript.